weather.gov     
National Weather Service

Terminal Aerodrome Forecast
NWS Homepage
This page is being discontinued on March 12, 2014.
The same data is available at this site. Please update your bookmarks.
Thank you, and we apologize for the inconvenience.
Please send an email to SR-SRH.Webmaster@noaa.gov with any concerns.


Current Version
Previous Version:    01  02  03  04  05  06  07  08  09  10  11  12  13  14  15  16  17  18  19  20  21  22  23  24  25  26  27  28  29  30  
   31  32  33  34  35  36  37  38  39  40  41  42  
[Printable]
064
FTUS43 KPAH 221500 AAC
TAFCGI
TAF AMD
KCGI 221517Z 2215/2312 14009KT 3SM BR OVC006
      TEMPO 2215/2217 1 1/2SM -SHRA OVC003
     FM221700 16012G18KT 4SM SHRA BR OVC006
     FM230300 23010KT 5SM -DZ BR OVC005
     FM230800 24007KT P6SM BKN008 OVC200=


U.S. Dept. of Commerce
NOAA National Weather Service
1325 East West Highway
Silver Spring, MD 20910
E-mail: w-nws.webmaster@noaa.gov
Page last modified: May 16, 2007
NATIONAL WEATHER SERVICE: for Safety, for Work, for Fun - FOR LIFE